STARLINK-31863, 59789

Orbit data source: Space-Track

STARLINK-31863, 59789 is a payload satellite owned by SpaceX/Seattle (US) in LEO that was launched on Sat, 18 May 2024 UTC via an FALCON 9 launch vehicle from the Air Force Eastern Test Range (AFETR). Payload-class satellites include a variety of spacecraft equipped with specific instruments for various scientific and technological missions. These include communications satellites like Starlink; space stations such as the ISS; scientific satellites like the Hubble; Earth observation satellites from companies like Planet Labs, Umbra, and HawkEye 360; GPS; miniature CubeSats for education and research; and military/defense satellites.

Loading next visibility...
Identifier
59789, 2024-093H
Orbit
LEO
Country
Flag of USUS
Related business
Manufacturer
SpaceX/Seattle
Mission
Operational Commercial Communications
Bus & Motor
STARLINK V2M, Unknown motor
Mass
730 kg wet, ~700 kg dry
Launch date (UTC)
2024-05-18 (1 year ago)
Launch vehicle
FALCON 9
Launch site
Air Force Eastern Test Range (AFETR)
Object type
Payload
Rocket body
Debris
Shape & HBR
Box + 2 Pan, 17.7 m
Radar Cross Section
33.884 m², Large (>1 m²)

Expand to show TLE details & history
Last TLE update: 16 hours ago

TLE from 16 hours ago
0 STARLINK-31863
1 59789U 24093H   25295.36426193  .00000693  00000-0  34718-4 0  9998
2 59789  42.9997 269.7995 0000826 237.5663 122.5109 15.27572832 81545
Epoch: 2025-10-22T08:44Z
TLE epoch observation values (Epoch: 2025-10-22T08:44:32.230Z)
Latitude
-0.00002°
Longitude
107.62626°
Altitude
483.151 km
Speed
7.625 km/s
True Right ascension
17h 59m 11s
True Declination
0° 00' 00"
Sunlit
Object was in daylight at epoch
Visualization orbit readout
Latitude
Unknown
Longitude
Unknown
Altitude
Unknown
Speed
Unknown
Apparent Right ascension
Unknown
Apparent Declination
Unknown
Sunlit
N/A
Visualization observer readout
Local Sidereal Time
20:17:03
Azimuth
Unknown
Elevation
Unknown
Doppler factor
Unknown
Orbital elements
Apogee altitude
485.583 km
Perigee altitude
484.449 km
Semi-major axis
6,863.153 km
Eccentricity
0.00008
Inclination
42.9997°
RAAN
269.7995°
Arg. of periapsis
237.5663°
True anomaly
122.51888°
Mean anomaly
122.5109°
Eccentric anomaly
122.51489°
Mean motion
3.81731 °/min
Orbital period
94.31 mins
BSTAR
0.000034718
Loading maneuver chart data...
Computing Atmospheric mass density...
Loading historical data...
Loading historical data...
Loading historical data...
Loading historical data...
Loading historical data...
Loading historical data...
Loading historical data...

Documentation

Showing up to 5 results
|